JBU543 KEWR-KPBI

Flight info

Callsign JBU543
Flight time N/A
Altitude 36000
Route ELVAE NECCK WHITE Q409 CRPLR EARZZ Q131 WAALT Y289 DULEE CLMNT2
Aircraft A320/M-SDE3FGHIRWY/LB1

Departure

Time N/A
Airport Newark Liberty International Airport (KEWR)

Arrival

Time 2026-05-03 23:15
Airport Palm Beach International Airport (KPBI)
Time Latitude Longitude Altitude Speed Heading
2026-05-03 22:21 30.72989 -78.89149 34159 ft 402 kts 205°
2026-05-03 22:22 30.70304 -78.90049 34162 ft 402 kts 205°
2026-05-03 22:22 30.64926 -78.91860 34159 ft 402 kts 205°
2026-05-03 22:23 30.59551 -78.93675 34160 ft 403 kts 205°
2026-05-03 22:23 30.54199 -78.95479 34158 ft 403 kts 205°
2026-05-03 22:24 30.48804 -78.97286 34155 ft 404 kts 205°
2026-05-03 22:24 30.43400 -78.99091 34159 ft 404 kts 205°
2026-05-03 22:25 30.37943 -79.00746 34169 ft 408 kts 202°
2026-05-03 22:25 30.32392 -79.02149 34167 ft 409 kts 201°
2026-05-03 22:26 30.26863 -79.03515 34171 ft 408 kts 201°
2026-05-03 22:26 30.21322 -79.04941 34174 ft 408 kts 202°
2026-05-03 22:27 30.15790 -79.06399 34174 ft 407 kts 202°
2026-05-03 22:27 30.10264 -79.07850 34174 ft 407 kts 202°
2026-05-03 22:28 30.04731 -79.09292 34172 ft 407 kts 201°
2026-05-03 22:28 29.99240 -79.10719 34170 ft 407 kts 201°
2026-05-03 22:29 29.93712 -79.12165 34173 ft 407 kts 201°
2026-05-03 22:29 29.88189 -79.13607 34166 ft 407 kts 201°
2026-05-03 22:30 29.82657 -79.15038 34165 ft 407 kts 201°
2026-05-03 22:30 29.77224 -79.16709 34158 ft 402 kts 206°
2026-05-03 22:31 29.71934 -79.18773 34155 ft 401 kts 207°
2026-05-03 22:31 29.66537 -79.20564 34147 ft 408 kts 201°
2026-05-03 22:32 29.61002 -79.21921 34140 ft 410 kts 200°
2026-05-03 22:32 29.55399 -79.23248 34136 ft 412 kts 200°
2026-05-03 22:33 29.49786 -79.24596 34139 ft 412 kts 200°
2026-05-03 22:33 29.44170 -79.25972 34136 ft 413 kts 200°
2026-05-03 22:34 29.38547 -79.27354 34139 ft 413 kts 200°
2026-05-03 22:34 29.32953 -79.28711 34136 ft 414 kts 200°
2026-05-03 22:35 29.27316 -79.30081 34141 ft 414 kts 200°
2026-05-03 22:35 29.21670 -79.31448 34137 ft 415 kts 200°
2026-05-03 22:35 29.18846 -79.32133 34012 ft 415 kts 200°
2026-05-03 22:36 29.16018 -79.32818 33745 ft 415 kts 200°
2026-05-03 22:36 29.13188 -79.33501 33474 ft 416 kts 200°
2026-05-03 22:36 29.10393 -79.34176 33213 ft 417 kts 200°
2026-05-03 22:36 29.07550 -79.34864 32954 ft 418 kts 200°
2026-05-03 22:37 29.04707 -79.35552 32698 ft 419 kts 200°
2026-05-03 22:37 29.01854 -79.36243 32440 ft 420 kts 200°
2026-05-03 22:37 28.98990 -79.36935 32187 ft 421 kts 199°
2026-05-03 22:37 28.96122 -79.37629 31934 ft 422 kts 199°
2026-05-03 22:38 28.93243 -79.38323 31694 ft 423 kts 199°
2026-05-03 22:38 28.90356 -79.39013 31448 ft 425 kts 199°
2026-05-03 22:38 28.87457 -79.39704 31204 ft 426 kts 199°
2026-05-03 22:38 28.84548 -79.40398 30963 ft 428 kts 198°
2026-05-03 22:39 28.81634 -79.41098 30730 ft 429 kts 198°
2026-05-03 22:39 28.78705 -79.41805 30487 ft 430 kts 198°
2026-05-03 22:39 28.75772 -79.42513 30247 ft 432 kts 198°
2026-05-03 22:39 28.72865 -79.43217 29996 ft 433 kts 198°
2026-05-03 22:40 28.69911 -79.43927 29732 ft 435 kts 198°
2026-05-03 22:40 28.66945 -79.44640 29450 ft 436 kts 198°
2026-05-03 22:40 28.63968 -79.45351 29173 ft 438 kts 198°
2026-05-03 22:40 28.60984 -79.46064 28908 ft 439 kts 198°
2026-05-03 22:41 28.57989 -79.46780 28643 ft 440 kts 198°
2026-05-03 22:41 28.54987 -79.47499 28377 ft 441 kts 198°
2026-05-03 22:41 28.51977 -79.48221 28117 ft 443 kts 198°
2026-05-03 22:41 28.49002 -79.48933 27865 ft 443 kts 198°
2026-05-03 22:42 28.45986 -79.49653 27607 ft 442 kts 198°
2026-05-03 22:42 28.42977 -79.50368 27354 ft 441 kts 198°
2026-05-03 22:42 28.39976 -79.51079 27102 ft 440 kts 198°
2026-05-03 22:42 28.36988 -79.51788 26859 ft 439 kts 198°
2026-05-03 22:43 28.34006 -79.52495 26605 ft 437 kts 198°
2026-05-03 22:43 28.31034 -79.53203 26315 ft 433 kts 198°
2026-05-03 22:43 28.28093 -79.53927 26043 ft 432 kts 199°
2026-05-03 22:43 28.25174 -79.54702 25809 ft 430 kts 200°
2026-05-03 22:44 28.22327 -79.55490 25241 ft 424 kts 200°
2026-05-03 22:44 28.19487 -79.56293 24953 ft 421 kts 201°
2026-05-03 22:44 28.16642 -79.57099 24726 ft 422 kts 200°
2026-05-03 22:44 28.13817 -79.57890 24174 ft 416 kts 200°
2026-05-03 22:45 28.11026 -79.58658 23757 ft 408 kts 200°
2026-05-03 22:45 28.08276 -79.59402 23120 ft 406 kts 200°
2026-05-03 22:45 28.05532 -79.60141 22353 ft 404 kts 200°
2026-05-03 22:45 28.02813 -79.60872 21663 ft 400 kts 200°
2026-05-03 22:46 28.00116 -79.61598 20996 ft 397 kts 200°
2026-05-03 22:46 27.97443 -79.62321 20338 ft 393 kts 200°
2026-05-03 22:46 27.94794 -79.63042 19707 ft 391 kts 199°
2026-05-03 22:46 27.92176 -79.63755 19079 ft 385 kts 199°
2026-05-03 22:47 27.89616 -79.64453 18470 ft 382 kts 199°
2026-05-03 22:47 27.87044 -79.65154 17791 ft 378 kts 199°
2026-05-03 22:47 27.84499 -79.65845 17096 ft 375 kts 199°
2026-05-03 22:47 27.81973 -79.66527 16420 ft 371 kts 199°
2026-05-03 22:48 27.79472 -79.67201 15759 ft 368 kts 199°
2026-05-03 22:48 27.76996 -79.67869 15209 ft 364 kts 199°
2026-05-03 22:48 27.74535 -79.68534 15025 ft 363 kts 199°
2026-05-03 22:48 27.72079 -79.69199 15002 ft 365 kts 199°
2026-05-03 22:49 27.69611 -79.69867 15006 ft 365 kts 199°
2026-05-03 22:49 27.67142 -79.70532 15005 ft 364 kts 198°
2026-05-03 22:49 27.64677 -79.71194 15008 ft 364 kts 198°
2026-05-03 22:49 27.62212 -79.71857 15006 ft 364 kts 199°
2026-05-03 22:50 27.59747 -79.72522 14993 ft 363 kts 199°
2026-05-03 22:50 27.57289 -79.73185 15005 ft 364 kts 198°
2026-05-03 22:50 27.54852 -79.73842 15004 ft 364 kts 198°
2026-05-03 22:50 27.52386 -79.74507 15005 ft 364 kts 198°
2026-05-03 22:51 27.49918 -79.75171 15004 ft 365 kts 198°
2026-05-03 22:51 27.47449 -79.75835 14967 ft 363 kts 198°
2026-05-03 22:51 27.45014 -79.76487 14414 ft 358 kts 198°
2026-05-03 22:51 27.42594 -79.77136 13803 ft 356 kts 198°
2026-05-03 22:52 27.40194 -79.77779 13120 ft 354 kts 198°
2026-05-03 22:52 27.37810 -79.78420 12440 ft 352 kts 198°
2026-05-03 22:52 27.35466 -79.79048 12250 ft 338 kts 198°
2026-05-03 22:52 27.33261 -79.79631 12121 ft 321 kts 198°
2026-05-03 22:53 27.31161 -79.80183 11828 ft 302 kts 198°
2026-05-03 22:53 27.29170 -79.80708 11514 ft 287 kts 199°
2026-05-03 22:53 27.27238 -79.81224 11211 ft 285 kts 199°
2026-05-03 22:53 27.25327 -79.81739 11014 ft 280 kts 199°
2026-05-03 22:54 27.23421 -79.82255 11005 ft 282 kts 199°
2026-05-03 22:54 27.21516 -79.82788 10921 ft 280 kts 202°
2026-05-03 22:54 27.19765 -79.83647 10989 ft 275 kts 212°
2026-05-03 22:54 27.18095 -79.84651 11006 ft 276 kts 212°
2026-05-03 22:55 27.16401 -79.85657 10998 ft 276 kts 212°
2026-05-03 22:55 27.14695 -79.86669 10584 ft 278 kts 212°
2026-05-03 22:55 27.12998 -79.87677 10053 ft 274 kts 212°
2026-05-03 22:55 27.11317 -79.88676 9475 ft 273 kts 212°
2026-05-03 22:56 27.09643 -79.89672 8892 ft 271 kts 212°
2026-05-03 22:56 27.07986 -79.90659 8320 ft 269 kts 211°
2026-05-03 22:56 27.06334 -79.91642 7760 ft 268 kts 211°
2026-05-03 22:56 27.04676 -79.92629 7212 ft 273 kts 211°
2026-05-03 22:57 27.02976 -79.93641 6673 ft 280 kts 211°
2026-05-03 22:57 27.01236 -79.94677 6111 ft 286 kts 210°
2026-05-03 22:57 26.99491 -79.95716 5561 ft 291 kts 210°
2026-05-03 22:57 26.97705 -79.96779 4994 ft 289 kts 210°
2026-05-03 22:58 26.95942 -79.97823 4438 ft 283 kts 210°
2026-05-03 22:58 26.94338 -79.99018 4075 ft 269 kts 220°
2026-05-03 22:58 26.92890 -80.00272 4008 ft 264 kts 220°
2026-05-03 22:58 26.91388 -80.01564 4012 ft 277 kts 219°
2026-05-03 22:59 26.89851 -80.02886 4009 ft 279 kts 219°
2026-05-03 22:59 26.88833 -80.03762 4010 ft 279 kts 220°
2026-05-03 22:59 26.86801 -80.05507 4009 ft 279 kts 219°
2026-05-03 22:59 26.85249 -80.06837 4009 ft 280 kts 220°
2026-05-03 23:00 26.83703 -80.08166 4011 ft 282 kts 219°
2026-05-03 23:00 26.82162 -80.09502 4009 ft 280 kts 221°
2026-05-03 23:00 26.81248 -80.10515 4008 ft 277 kts 235°
2026-05-03 23:00 26.80534 -80.12448 4015 ft 268 kts 262°
2026-05-03 23:01 26.80368 -80.14479 4006 ft 256 kts 265°
2026-05-03 23:01 26.80233 -80.16456 4013 ft 256 kts 264°
2026-05-03 23:01 26.80082 -80.18443 4012 ft 255 kts 264°
2026-05-03 23:01 26.79858 -80.21059 4016 ft 255 kts 263°
2026-05-03 23:02 26.79673 -80.23031 4012 ft 254 kts 263°
2026-05-03 23:02 26.79548 -80.24330 4009 ft 254 kts 263°
2026-05-03 23:02 26.79355 -80.26296 4011 ft 254 kts 262°
2026-05-03 23:02 26.79157 -80.28270 4014 ft 254 kts 262°
2026-05-03 23:03 26.78958 -80.30228 4015 ft 253 kts 262°
2026-05-03 23:03 26.78756 -80.32182 4018 ft 252 kts 262°
2026-05-03 23:03 26.78552 -80.34135 4017 ft 254 kts 263°
2026-05-03 23:03 26.78301 -80.36723 4015 ft 253 kts 268°
2026-05-03 23:04 26.78305 -80.38053 4017 ft 254 kts 271°
2026-05-03 23:04 26.78400 -80.40025 4017 ft 254 kts 272°
2026-05-03 23:04 26.78509 -80.41987 4017 ft 252 kts 272°
2026-05-03 23:04 26.78609 -80.43868 4015 ft 243 kts 273°
2026-05-03 23:05 26.78712 -80.45756 4018 ft 243 kts 272°
2026-05-03 23:05 26.78820 -80.47637 4016 ft 238 kts 272°
2026-05-03 23:05 26.78919 -80.49431 4016 ft 224 kts 272°
2026-05-03 23:05 26.79019 -80.51160 4018 ft 222 kts 272°
2026-05-03 23:06 26.79063 -80.52885 4020 ft 221 kts 261°
2026-05-03 23:06 26.78463 -80.54444 3981 ft 223 kts 231°
2026-05-03 23:06 26.77208 -80.55444 3713 ft 225 kts 202°
2026-05-03 23:06 26.75670 -80.55646 3389 ft 231 kts 174°
2026-05-03 23:07 26.74189 -80.54941 3067 ft 237 kts 142°
2026-05-03 23:07 26.73229 -80.53448 3014 ft 243 kts 111°
2026-05-03 23:07 26.72870 -80.51577 3014 ft 249 kts 102°
2026-05-03 23:07 26.72514 -80.49682 3013 ft 249 kts 105°
2026-05-03 23:08 26.72111 -80.47799 3019 ft 249 kts 105°
2026-05-03 23:08 26.71700 -80.45921 3012 ft 249 kts 105°
2026-05-03 23:08 26.71289 -80.44039 3016 ft 250 kts 105°
2026-05-03 23:08 26.70887 -80.42173 3013 ft 250 kts 104°
2026-05-03 23:09 26.70484 -80.40275 3014 ft 251 kts 104°
2026-05-03 23:09 26.70086 -80.38378 3013 ft 250 kts 105°
2026-05-03 23:09 26.69695 -80.36489 3009 ft 250 kts 104°
2026-05-03 23:09 26.69344 -80.34587 3013 ft 248 kts 97°
2026-05-03 23:10 26.69228 -80.32703 3006 ft 240 kts 92°
2026-05-03 23:10 26.69167 -80.30843 3010 ft 239 kts 94°
2026-05-03 23:10 26.69095 -80.28982 3011 ft 240 kts 94°
2026-05-03 23:10 26.69018 -80.27153 2887 ft 238 kts 94°
2026-05-03 23:11 26.68940 -80.25322 2616 ft 233 kts 94°
2026-05-03 23:11 26.68866 -80.23549 2335 ft 224 kts 94°
2026-05-03 23:11 26.68792 -80.21832 2048 ft 218 kts 93°
2026-05-03 23:11 26.68722 -80.20171 1788 ft 210 kts 95°
2026-05-03 23:12 26.68653 -80.18566 1522 ft 204 kts 94°
2026-05-03 23:12 26.68586 -80.17007 1251 ft 198 kts 95°
2026-05-03 23:12 26.68523 -80.15519 980 ft 186 kts 95°
2026-05-03 23:12 26.68463 -80.14141 729 ft 165 kts 92°
2026-05-03 23:13 26.68410 -80.12940 496 ft 150 kts 88°
2026-05-03 23:13 26.68362 -80.11841 325 ft 134 kts 90°
2026-05-03 23:13 26.68350 -80.11564 278 ft 133 kts 89°
2026-05-03 23:14 26.68334 -80.10953 215 ft 120 kts 87°
2026-05-03 23:14 26.68290 -80.10027 41 ft 118 kts 90°
2026-05-03 23:15 26.68259 -80.09241 23 ft 78 kts 92°
2026-05-03 23:15 26.68236 -80.08883 22 ft 19 kts 88°
2026-05-03 23:15 26.68302 -80.08845 21 ft 7 kts
2026-05-03 23:15 26.68338 -80.08846 21 ft 6 kts 359°
2026-05-03 23:16 26.68379 -80.08842 22 ft 6 kts
2026-05-03 23:16 26.68416 -80.08838 22 ft 2 kts
2026-05-03 23:16 26.68434 -80.08850 23 ft 5 kts 311°
2026-05-03 23:16 26.68444 -80.08888 23 ft 6 kts 275°
2026-05-03 23:17 26.68450 -80.08933 22 ft 5 kts 304°
2026-05-03 23:17 26.68473 -80.08935 23 ft 3 kts 360°
2026-05-03 23:17 26.68497 -80.08938 26 ft 2 kts 357°
2026-05-03 23:17 26.68509 -80.08935 24 ft 2 kts
2026-05-03 23:18 26.68517 -80.08934 25 ft 1 kts
2026-05-03 23:18 26.68519 -80.08934 25 ft 0 kts
2026-05-03 23:19 26.68899 -80.24330 2454 ft 228 kts 95°
2026-05-03 23:19 26.68825 -80.22588 2164 ft 220 kts 94°